Location: Franzen
(48.6167°N, 15.3833°E)
Time: 13:09:11
(UTC+00:00)

Resurs 1-3 - Pass Details

Date: 22 April 2021
Orbit: 630 x 632 km, 97.9° (Epoch: 16 May)

Event Time Altitude Azimuth Distance (km) Brightness Sun altitude
Exits shadow 19:09:14 - 168° (SSE) 2,351 6.1 -11.0°
Reaches altitude 10° 19:10:04 10° 169° (SSE) 2,009 5.8 -11.1°
Maximum altitude 19:14:27 81° 256° (WSW) 647 3.7 -11.7°
Drops below altitude 10° 19:18:52 10° 345° (NNW) 2,024 7.0 -12.3°
Sets 19:21:05 0° 346° (NNW) 2,936 7.9 -12.6°
